Regional Weather Roundup
Issued by NWS Sterling, VA

Home | Current Version | Previous Version | Graphics & Text | Print | Product List | Glossary On
Versions: 1 2 3 4 5 6 7 8 9 10 11 12 13 14 15 16 17 18 19 20 21 22 23 24 25 26 27 28 29 30 31 32 33 34 35 36 37 38 39 40 41 42 43 44 45 46 47 48 49 50
000
ASUS41 KLWX 110610
RWRLWX

REGIONAL WEATHER ROUNDUP
NATIONAL WEATHER SERVICE BALTIMORE MD/WASHINGTON DC
100 AM EST THU FEB 11 2016

Note: "FAIR" indicates few or no clouds below 12,000 feet
with no significant weather and/or obstructions to visibility.
 TC=TEMPERATURE CELSIUS

 * =Non NWS site. Station does not report precipitation (e.g. rain,
    snow, etc.), thunder, or fog.

DCZ001-MDZ009-015-VAZ040>042-051-053>054-110700-
WASHINGTON METRO

CITY           SKY/WX    TMP DP  RH WIND       PRES   REMARKS
WASHINGTON NAT FAIR      26   7  44 W10G23    29.98R WCI  16
DULLES         FAIR      23   6  48 W12       29.97R WCI  12
ANDREWS AFB    CLEAR     24   8  49 W13       29.95R WCI  12
FT BELVOIR     FAIR      25   5  43 W8        29.98R WCI  16
QUANTICO       FAIR      26   7  44 NW6       30.01R
COLLEGE PARK*  MOCLDY    27   9  46 W10G23    29.96S WCI  17
LEESBURG*      FAIR      25  14  63 NW20G25   29.97R WCI  11
MANASSAS*      FAIR      25   9  50 W9G16     29.99R WCI  15
GAITHERSBURG*  PTCLDY    21   7  53 W14       29.98R WCI   8

$$

MDZ006>007-011-014-110700-
BALTIMORE METRO

CITY           SKY/WX    TMP DP  RH WIND       PRES   REMARKS
BWI AIRPORT    MOCLDY    23   8  52 W14       29.94R WCI  11
MD SCIENCE CTR   N/A     25   8  48 MISG      29.89F
MARTIN STATE   CLEAR     27  14  59 W13       29.95R WCI  16
ANNAPOLIS      CLEAR     26  11  52 W10       29.95R WCI  16
FORT MEADE*    PTCLDY    23  10  58 W7G17     29.98R

$$

MDZ012-015-019>023-110700-
MARYLAND EASTERN SHORE

CITY           SKY/WX    TMP DP  RH WIND       PRES   REMARKS
OCEAN CITY     FLURRIES  26  19  74 NW14      29.92R WCI  14
SALISBURY      CLOUDY    26  16  65 NW14G22   29.93R WCI  14
BAY BRIDGE AP*   N/A     28  10  47 W20G25    29.95R WCI  15
CAMBRIDGE*     CLEAR     27  10  50 NW17G26   29.94S WCI  14
EASTON*        CLEAR     27  12  53 NW14G25   29.98R WCI  16

$$

MDZ017>025-110700-
SOUTHERN MARYLAND

CITY           SKY/WX    TMP DP  RH WIND       PRES   REMARKS
PATUXENT RIVER PTCLDY    26   8  46 W15G21    29.97R WCI  14
ST INIGOES     PTCLDY    27   9  46 W17G26    29.97R WCI  14
LEONARDTOWN*   PTCLDY    27   9  46 W10       29.98R WCI  17

$$

MDZ003>005-110700-
NORTH CENTRAL MARYLAND

CITY           SKY/WX    TMP DP  RH WIND       PRES   REMARKS
FREDERICK*     PTCLDY    23  12  63 W16       29.99R WCI  10
HAGERSTOWN APT PTCLDY    20   7  57 W21G29    29.91S WCI   4
WESTMINSTER*   PTCLDY    19  12  73 W10       29.89R WCI   8

$$

MDZ501>502-110700-
WESTERN MARYLAND

CITY           SKY/WX    TMP DP  RH WIND       PRES   REMARKS
OAKLAND*       CLOUDY     7   3  85 W22G31    29.78S FOG     WCI -14
CUMBERLAND*    PTCLDY    21   9  58 W14G21    30.01R WCI   8

$$

VAZ025>031-110700-
SHENANDOAH VALLEY

CITY           SKY/WX    TMP DP  RH WIND       PRES   REMARKS
WINCHESTER*    FAIR      23   9  54 W20G25    29.95R WCI   8
FRONT ROYAL*   MOCLDY    21   5  49 W7G23     29.96R
LURAY*         MOCLDY    21   5  49 W8        29.96S WCI  12
NEW MARKET*    CLOUDY    20   5  53 W5        29.96S
STAUNTON*      FAIR      22   8  55 W8        29.97S WCI  13
WAYNESBORO*    MOCLDY    17   1  48 SW7       29.95R

$$

WVZ021-048>050-054>055-110700-
EASTERN WEST VIRGINIA PANHANDLE

CITY           SKY/WX    TMP DP  RH WIND       PRES   REMARKS
MARTINSBURG    FAIR      20   5  52 W18G26    29.95R WCI   5
PETERSBURG*    FLURRIES  19   6  57 CALM      29.99R

$$

VAZ036>039-050-110700-
CENTRAL FOOTHILLS

CITY           SKY/WX    TMP DP  RH WIND       PRES   REMARKS
CHARLOTTESVILL FAIR      22   2  42 NW5       29.99R
CULPEPER*      FAIR      23   4  44 W5        30.01R
ORANGE*        FAIR      25   7  46 SW7       30.01R
GORDONSVILLE*  FAIR      23   3  42 SW3       29.99R
WARRENTON*     FAIR      24  10  56 W7        29.98R

$$

VAZ055>057-110700-
NORTH AND CENTRAL PIEDMONT

CITY           SKY/WX    TMP DP  RH WIND       PRES   REMARKS
FREDERICKSBRG* FAIR      25   8  48 W10       30.00R WCI  15
STAFFORD*      FAIR      23   5  46 W3        30.03R

$$

NCZ024-NYZ072-PAZ021-071-VAZ022-071-110700-
OTHER REGIONAL OBSERVATIONS

CITY           SKY/WX    TMP DP  RH WIND       PRES   REMARKS
NEW YORK CITY  CLOUDY    30  14  51 W6G22     29.77R
PHILADELPHIA   CLOUDY    26  10  50 W15       29.87R WCI  14
PITTSBURGH     FLURRIES  14   6  70 W12G21    29.92S WCI   0
ROANOKE        FAIR      18   1  47 NW20G29   30.04S WCI   2
RICHMOND       FAIR      25   5  42 W14       30.01R WCI  13
RALEIGH        PTCLDY    26   6  42 NW10      30.07R WCI  16

$$

ANZ530>537-110700-
MARINE OBSERVATIONS

STATION/POSITION TIME  TEMP    WIND        PRES
                       AIR SEA DIR/SP/G
                 (UTC) (F)     (DEG/KT/KT) (MB)
THOMAS PT LIGHT  0600   26 38  300/ 18/ 20 1014.7R
BALT KEY BRIDGE  0500   25     270/ 18/ 22 1013.2R
COVE POINT       0500   26     330/ 14/ 27 1014.9R
LEWISETTA        0500   29 40  310/ 14/ 17 1014.5R
SOLOMONS ISLAND  0500      41                N/A
PINEY POINT      0500          330/ 26/ 28   N/A

$$




USA.gov is the U.S. government's official web portal to all federal, state and local government web resources and services.